Time,TemperatureF,DewpointF,PressureIn,WindDirection,WindDirectionDegrees,WindSpeedMPH,WindSpeedGustMPH,Humidity,HourlyPrecipIn,Conditions,Clouds,dailyrainin,SoftwareType,DateUTC
2013-01-26 00:02:00,55.6,50.1,30.04,WSW,248,0.4,0.4,82,0.00,,,0.00,WUHU216HW,2013-01-26 08:02:00,
2013-01-26 00:07:00,55.6,50.1,30.04,SW,225,2.2,2.2,82,0.00,,,0.00,WUHU216HW,2013-01-26 08:07:00,
2013-01-26 00:12:00,55.4,50.0,30.04,West,270,1.8,2.5,82,0.00,,,0.00,WUHU216HW,2013-01-26 08:12:00,
2013-01-26 00:17:00,55.4,50.0,30.04,West,270,2.7,2.7,82,0.00,,,0.00,WUHU216HW,2013-01-26 08:17:00,
2013-01-26 00:22:00,55.1,49.7,30.04,WSW,248,0.4,2.7,82,0.00,,,0.00,WUHU216HW,2013-01-26 08:22:00,
2013-01-26 00:27:00,54.9,49.8,30.04,WNW,293,0.0,2.7,83,0.00,,,0.00,WUHU216HW,2013-01-26 08:27:00,
2013-01-26 00:33:00,54.9,49.8,30.04,WNW,293,0.2,0.2,83,0.00,,,0.00,WUHU216HW,2013-01-26 08:33:00,
2013-01-26 00:38:00,54.7,49.6,30.03,WNW,293,1.1,1.1,83,0.00,,,0.00,WUHU216HW,2013-01-26 08:38:00,
2013-01-26 00:43:00,54.7,49.6,30.03,ESE,113,1.1,1.1,83,0.00,,,0.00,WUHU216HW,2013-01-26 08:43:00,
2013-01-26 00:48:00,54.5,49.4,30.03,ENE,68,0.2,1.1,83,0.00,,,0.00,WUHU216HW,2013-01-26 08:48:00,
2013-01-26 00:53:00,54.5,49.4,30.03,ENE,68,0.0,0.4,83,0.00,,,0.00,WUHU216HW,2013-01-26 08:53:00,
2013-01-26 00:58:00,54.4,49.3,30.03,ENE,68,0.0,0.2,83,0.00,,,0.00,WUHU216HW,2013-01-26 08:58:00,
2013-01-26 01:03:00,54.2,49.2,30.03,ENE,68,0.0,0.4,83,0.00,,,0.00,WUHU216HW,2013-01-26 09:03:00,
2013-01-26 01:08:00,54.2,49.2,30.03,East,90,0.7,0.7,83,0.00,,,0.00,WUHU216HW,2013-01-26 09:08:00,
2013-01-26 01:13:00,54.0,49.0,30.02,East,90,0.4,0.9,83,0.00,,,0.00,WUHU216HW,2013-01-26 09:13:00,
2013-01-26 01:18:00,54.0,49.0,30.02,ESE,113,0.2,0.9,83,0.00,,,0.00,WUHU216HW,2013-01-26 09:18:00,
2013-01-26 01:23:00,53.8,48.8,30.02,ESE,113,0.0,0.4,83,0.00,,,0.00,WUHU216HW,2013-01-26 09:23:00,
2013-01-26 01:28:00,53.6,48.6,30.02,ESE,113,0.0,0.2,83,0.00,,,0.00,WUHU216HW,2013-01-26 09:28:00,
2013-01-26 01:33:00,53.5,48.4,30.02,East,90,0.0,0.2,83,0.00,,,0.00,WUHU216HW,2013-01-26 09:33:00,
2013-01-26 01:38:00,53.5,48.4,30.02,NE,45,0.0,0.2,83,0.00,,,0.00,WUHU216HW,2013-01-26 09:38:00,
2013-01-26 01:43:00,53.3,48.2,30.02,NE,45,0.4,0.4,83,0.00,,,0.00,WUHU216HW,2013-01-26 09:43:00,
2013-01-26 01:48:00,53.3,48.2,30.02,NE,45,0.0,0.4,83,0.00,,,0.00,WUHU216HW,2013-01-26 09:48:00,
2013-01-26 01:53:00,53.3,48.6,30.02,NE,45,0.0,0.4,84,0.00,,,0.00,WUHU216HW,2013-01-26 09:53:00,
2013-01-26 01:58:00,53.1,48.1,30.02,West,270,2.7,2.7,83,0.00,,,0.00,WUHU216HW,2013-01-26 09:58:00,
2013-01-26 02:03:00,52.9,48.3,30.02,West,270,2.5,2.7,84,0.00,,,0.00,WUHU216HW,2013-01-26 10:03:00,
2013-01-26 02:08:00,52.7,48.1,30.02,WSW,248,1.8,2.7,84,0.00,,,0.00,WUHU216HW,2013-01-26 10:08:00,
2013-01-26 02:13:00,52.7,48.1,30.02,WSW,248,0.7,2.5,84,0.00,,,0.00,WUHU216HW,2013-01-26 10:13:00,
2013-01-26 02:18:00,52.6,48.2,30.02,NE,45,0.4,1.1,85,0.00,,,0.00,WUHU216HW,2013-01-26 10:18:00,
2013-01-26 02:23:00,52.6,48.2,30.02,ENE,68,0.9,1.1,85,0.00,,,0.00,WUHU216HW,2013-01-26 10:23:00,
2013-01-26 02:28:00,52.6,48.2,30.02,ENE,68,0.0,0.9,85,0.00,,,0.00,WUHU216HW,2013-01-26 10:28:00,
2013-01-26 02:33:00,52.4,48.0,30.02,ENE,68,0.7,0.9,85,0.00,,,0.00,WUHU216HW,2013-01-26 10:33:00,
2013-01-26 02:38:00,52.4,48.0,30.02,North,0,0.0,0.7,85,0.00,,,0.00,WUHU216HW,2013-01-26 10:38:00,
2013-01-26 02:43:00,52.2,47.8,30.02,North,0,0.0,0.7,85,0.00,,,0.00,WUHU216HW,2013-01-26 10:43:00,
2013-01-26 02:48:00,52.2,47.8,30.02,North,0,0.0,0.0,85,0.00,,,0.00,WUHU216HW,2013-01-26 10:48:00,
2013-01-26 02:53:00,52.2,47.8,30.02,North,0,1.1,1.1,85,0.00,,,0.00,WUHU216HW,2013-01-26 10:53:00,
2013-01-26 02:58:00,52.0,47.4,30.02,ESE,113,0.7,1.1,84,0.00,,,0.00,WUHU216HW,2013-01-26 10:58:00,
2013-01-26 03:03:00,51.8,47.2,30.02,East,90,0.0,1.1,84,0.00,,,0.00,WUHU216HW,2013-01-26 11:03:00,
2013-01-26 03:08:00,51.8,47.2,30.02,East,90,0.0,0.9,84,0.00,,,0.00,WUHU216HW,2013-01-26 11:08:00,
2013-01-26 03:13:00,51.7,47.0,30.02,East,90,0.0,0.0,84,0.00,,,0.00,WUHU216HW,2013-01-26 11:13:00,
2013-01-26 03:18:00,51.5,46.8,30.02,East,90,0.0,0.0,84,0.00,,,0.00,WUHU216HW,2013-01-26 11:18:00,
2013-01-26 03:23:00,51.5,46.8,30.02,East,90,0.0,0.0,84,0.00,,,0.00,WUHU216HW,2013-01-26 11:23:00,
2013-01-26 03:28:00,51.5,46.8,30.02,ESE,113,0.0,0.7,84,0.00,,,0.00,WUHU216HW,2013-01-26 11:28:00,
2013-01-26 03:33:00,51.5,47.1,30.01,SE,135,0.2,0.7,85,0.00,,,0.00,WUHU216HW,2013-01-26 11:33:00,
2013-01-26 03:38:00,51.3,46.9,30.01,SE,135,0.0,0.7,85,0.00,,,0.00,WUHU216HW,2013-01-26 11:38:00,
2013-01-26 03:43:00,51.3,46.9,30.01,SE,135,0.0,0.0,85,0.00,,,0.00,WUHU216HW,2013-01-26 11:43:00,
2013-01-26 03:48:00,51.3,46.9,30.01,SE,135,0.4,0.4,85,0.00,,,0.00,WUHU216HW,2013-01-26 11:48:00,
2013-01-26 03:53:00,51.3,46.9,30.01,SE,135,0.0,0.4,85,0.00,,,0.00,WUHU216HW,2013-01-26 11:53:00,
2013-01-26 03:58:00,51.1,46.7,30.01,SE,135,0.0,0.4,85,0.00,,,0.00,WUHU216HW,2013-01-26 11:58:00,
2013-01-26 04:03:00,51.1,46.7,30.01,SE,135,0.0,0.0,85,0.00,,,0.00,WUHU216HW,2013-01-26 12:03:00,
2013-01-26 04:08:00,51.1,46.7,30.01,SSW,203,0.7,0.7,85,0.00,,,0.00,WUHU216HW,2013-01-26 12:08:00,
2013-01-26 04:13:00,51.1,47.0,30.01,SW,225,0.9,0.9,86,0.00,,,0.00,WUHU216HW,2013-01-26 12:13:00,
2013-01-26 04:18:00,51.1,47.0,30.01,SW,225,0.0,0.9,86,0.00,,,0.00,WUHU216HW,2013-01-26 12:18:00,
2013-01-26 04:23:00,51.1,47.0,30.01,SW,225,0.0,0.9,86,0.00,,,0.00,WUHU216HW,2013-01-26 12:23:00,
2013-01-26 04:28:00,51.1,47.0,30.00,WNW,293,0.7,0.7,86,0.00,,,0.00,WUHU216HW,2013-01-26 12:28:00,
2013-01-26 04:33:00,51.1,47.0,30.00,WNW,293,0.0,0.7,86,0.00,,,0.00,WUHU216HW,2013-01-26 12:33:00,
2013-01-26 04:38:00,51.1,47.0,30.00,WNW,293,0.0,0.7,86,0.00,,,0.00,WUHU216HW,2013-01-26 12:38:00,
2013-01-26 04:43:00,51.1,47.0,30.00,WNW,293,0.0,0.0,86,0.00,,,0.00,WUHU216HW,2013-01-26 12:43:00,
2013-01-26 04:48:00,51.1,47.0,30.00,WNW,293,0.0,0.0,86,0.00,,,0.00,WUHU216HW,2013-01-26 12:48:00,
2013-01-26 04:53:00,51.1,47.0,30.00,WNW,293,0.0,0.0,86,0.00,,,0.00,WUHU216HW,2013-01-26 12:53:00,
2013-01-26 04:58:00,51.1,47.0,30.00,WNW,293,0.0,0.0,86,0.00,,,0.00,WUHU216HW,2013-01-26 12:58:00,
2013-01-26 05:03:00,51.1,47.0,30.00,WNW,293,0.0,0.0,86,0.00,,,0.00,WUHU216HW,2013-01-26 13:03:00,
2013-01-26 05:08:00,51.1,47.0,30.00,WNW,293,0.0,0.0,86,0.00,,,0.00,WUHU216HW,2013-01-26 13:08:00,
2013-01-26 05:13:00,51.1,47.4,30.00,SSE,158,0.0,0.0,87,0.00,,,0.00,WUHU216HW,2013-01-26 13:13:00,
2013-01-26 05:18:00,51.1,47.4,30.00,SSE,158,0.0,0.0,87,0.00,,,0.00,WUHU216HW,2013-01-26 13:18:00,
2013-01-26 05:23:00,51.1,47.4,30.00,SSE,158,0.0,0.0,87,0.00,,,0.00,WUHU216HW,2013-01-26 13:23:00,
2013-01-26 05:28:00,51.1,47.4,30.00,SSE,158,0.0,0.0,87,0.00,,,0.00,WUHU216HW,2013-01-26 13:28:00,
2013-01-26 05:33:00,51.1,47.4,30.00,SSE,158,0.0,0.0,87,0.00,,,0.00,WUHU216HW,2013-01-26 13:33:00,
2013-01-26 05:38:00,51.1,47.4,30.01,West,270,0.4,1.1,87,0.00,,,0.00,WUHU216HW,2013-01-26 13:38:00,
2013-01-26 05:43:00,51.1,47.4,30.00,West,270,0.7,1.1,87,0.00,,,0.00,WUHU216HW,2013-01-26 13:43:00,
2013-01-26 05:48:00,51.1,47.6,30.00,North,0,0.4,0.7,88,0.00,,,0.00,WUHU216HW,2013-01-26 13:48:00,
2013-01-26 05:53:00,51.1,47.6,30.01,North,0,0.0,0.7,88,0.00,,,0.00,WUHU216HW,2013-01-26 13:53:00,
2013-01-26 05:58:00,51.3,47.8,30.00,North,0,0.0,0.4,88,0.00,,,0.00,WUHU216HW,2013-01-26 13:58:00,
2013-01-26 06:03:00,51.1,47.6,30.01,North,0,0.4,0.4,88,0.00,,,0.00,WUHU216HW,2013-01-26 14:03:00,
2013-01-26 06:08:00,51.1,47.6,30.01,North,0,0.0,0.4,88,0.00,,,0.00,WUHU216HW,2013-01-26 14:08:00,
2013-01-26 06:13:00,51.1,47.6,30.01,North,0,0.0,0.0,88,0.00,,,0.00,WUHU216HW,2013-01-26 14:13:00,
2013-01-26 06:18:00,51.1,47.6,30.01,SW,225,1.1,1.1,88,0.00,,,0.00,WUHU216HW,2013-01-26 14:18:00,
2013-01-26 06:23:00,51.1,47.6,30.01,West,270,1.8,1.8,88,0.00,,,0.00,WUHU216HW,2013-01-26 14:23:00,
2013-01-26 06:28:00,51.1,47.6,30.01,WSW,248,0.9,1.8,88,0.00,,,0.00,WUHU216HW,2013-01-26 14:28:00,
2013-01-26 06:33:00,51.1,47.6,30.01,WSW,248,0.0,1.3,88,0.00,,,0.00,WUHU216HW,2013-01-26 14:33:00,
2013-01-26 06:38:00,51.1,47.6,30.01,WSW,248,0.0,0.9,88,0.00,,,0.00,WUHU216HW,2013-01-26 14:38:00,
2013-01-26 06:43:00,51.1,47.6,30.01,WSW,248,0.4,0.4,88,0.00,,,0.00,WUHU216HW,2013-01-26 14:43:00,
2013-01-26 06:48:00,51.1,47.6,30.01,ENE,68,0.0,0.4,88,0.00,,,0.00,WUHU216HW,2013-01-26 14:48:00,
2013-01-26 06:53:00,51.1,47.6,30.01,ENE,68,0.0,0.4,88,0.00,,,0.00,WUHU216HW,2013-01-26 14:53:00,
2013-01-26 06:58:00,51.1,48.0,30.01,ENE,68,0.0,0.0,89,0.00,,,0.00,WUHU216HW,2013-01-26 14:58:00,
2013-01-26 07:03:00,51.1,47.6,30.01,ENE,68,0.0,0.0,88,0.00,,,0.00,WUHU216HW,2013-01-26 15:03:00,
2013-01-26 07:08:00,51.1,48.0,30.02,ENE,68,0.0,0.0,89,0.00,,,0.00,WUHU216HW,2013-01-26 15:08:00,
2013-01-26 07:13:00,51.1,48.0,30.02,ENE,68,0.0,0.0,89,0.00,,,0.00,WUHU216HW,2013-01-26 15:13:00,
2013-01-26 07:18:00,51.1,48.0,30.01,ENE,68,0.0,0.0,89,0.00,,,0.00,WUHU216HW,2013-01-26 15:18:00,
2013-01-26 07:23:00,51.1,48.0,30.01,ENE,68,0.0,0.0,89,0.00,,,0.00,WUHU216HW,2013-01-26 15:23:00,
2013-01-26 07:28:00,51.1,48.0,30.01,SE,135,0.0,0.4,89,0.00,,,0.00,WUHU216HW,2013-01-26 15:28:00,
2013-01-26 07:33:00,51.1,48.0,30.01,SE,135,0.0,0.4,89,0.00,,,0.00,WUHU216HW,2013-01-26 15:33:00,
2013-01-26 07:38:00,51.1,48.0,30.01,SE,135,0.0,0.4,89,0.00,,,0.00,WUHU216HW,2013-01-26 15:38:00,
2013-01-26 07:43:00,51.1,48.0,30.01,SSW,203,0.0,0.0,89,0.00,,,0.00,WUHU216HW,2013-01-26 15:43:00,
2013-01-26 07:48:00,51.1,48.0,30.01,SSW,203,0.0,0.0,89,0.00,,,0.00,WUHU216HW,2013-01-26 15:48:00,
2013-01-26 07:53:00,51.3,48.2,30.02,SSW,203,0.4,1.1,89,0.00,,,0.00,WUHU216HW,2013-01-26 15:53:00,
2013-01-26 07:58:00,51.3,48.2,30.02,SW,225,0.7,1.1,89,0.00,,,0.00,WUHU216HW,2013-01-26 15:58:00,
2013-01-26 08:03:00,51.3,48.2,30.02,SW,225,0.0,0.7,89,0.00,,,0.00,WUHU216HW,2013-01-26 16:03:00,
2013-01-26 08:08:00,51.3,48.2,30.02,SW,225,0.0,0.7,89,0.00,,,0.00,WUHU216HW,2013-01-26 16:08:00,
2013-01-26 08:13:00,51.3,48.2,30.02,SW,225,0.0,0.0,89,0.00,,,0.00,WUHU216HW,2013-01-26 16:13:00,
2013-01-26 08:18:00,51.3,48.2,30.02,WSW,248,0.9,0.9,89,0.00,,,0.00,WUHU216HW,2013-01-26 16:18:00,
2013-01-26 08:23:00,51.3,48.2,30.02,WSW,248,0.0,0.9,89,0.00,,,0.00,WUHU216HW,2013-01-26 16:23:00,
2013-01-26 08:28:00,51.3,48.2,30.02,WSW,248,0.0,0.4,89,0.00,,,0.00,WUHU216HW,2013-01-26 16:28:00,
2013-01-26 08:33:00,51.3,48.2,30.02,WSW,248,0.0,0.0,89,0.00,,,0.00,WUHU216HW,2013-01-26 16:33:00,
2013-01-26 08:38:00,51.5,48.3,30.02,WSW,248,0.0,0.0,89,0.00,,,0.00,WUHU216HW,2013-01-26 16:38:00,
2013-01-26 08:43:00,51.5,48.3,30.02,WSW,248,0.0,0.0,89,0.00,,,0.00,WUHU216HW,2013-01-26 16:43:00,
2013-01-26 08:48:00,51.5,48.3,30.02,WSW,248,0.0,0.0,89,0.00,,,0.00,WUHU216HW,2013-01-26 16:48:00,
2013-01-26 08:53:00,51.5,48.3,30.02,NW,315,0.7,0.7,89,0.00,,,0.00,WUHU216HW,2013-01-26 16:53:00,
2013-01-26 08:58:00,51.5,48.6,30.02,SSW,203,2.5,2.5,90,0.00,,,0.00,WUHU216HW,2013-01-26 16:58:00,
2013-01-26 09:03:00,51.7,48.5,30.02,WNW,293,3.4,5.8,89,0.00,,,0.00,WUHU216HW,2013-01-26 17:03:00,
2013-01-26 09:08:00,51.7,48.5,30.03,West,270,2.0,5.8,89,0.00,,,0.00,WUHU216HW,2013-01-26 17:08:00,
2013-01-26 09:13:00,51.7,48.5,30.03,WSW,248,4.0,4.7,89,0.00,,,0.00,WUHU216HW,2013-01-26 17:13:00,
2013-01-26 09:18:00,51.5,48.3,30.03,NW,315,2.9,5.8,89,0.00,,,0.00,WUHU216HW,2013-01-26 17:18:00,
2013-01-26 09:23:00,51.5,48.3,30.03,NW,315,2.2,5.8,89,0.00,,,0.00,WUHU216HW,2013-01-26 17:23:00,
2013-01-26 09:28:00,51.5,48.3,30.03,NNW,338,3.4,4.7,89,0.00,,,0.00,WUHU216HW,2013-01-26 17:28:00,
2013-01-26 09:33:00,51.5,48.3,30.03,West,270,3.1,3.4,89,0.00,,,0.00,WUHU216HW,2013-01-26 17:33:00,
2013-01-26 09:38:00,51.5,48.3,30.03,West,270,4.9,4.9,89,0.00,,,0.00,WUHU216HW,2013-01-26 17:38:00,
2013-01-26 09:43:00,51.5,48.3,30.03,West,270,2.2,4.9,89,0.00,,,0.00,WUHU216HW,2013-01-26 17:43:00,
2013-01-26 09:48:00,51.5,48.3,30.04,North,0,3.1,4.7,89,0.00,,,0.00,WUHU216HW,2013-01-26 17:48:00,
2013-01-26 09:53:00,51.7,48.2,30.04,NW,315,5.6,5.6,88,0.00,,,0.00,WUHU216HW,2013-01-26 17:53:00,
2013-01-26 09:58:00,51.8,48.3,30.04,WNW,293,2.2,5.6,88,0.00,,,0.00,WUHU216HW,2013-01-26 17:58:00,
2013-01-26 10:03:00,52.2,48.4,30.04,West,270,2.7,6.5,87,0.00,,,0.00,WUHU216HW,2013-01-26 18:03:00,
2013-01-26 10:08:00,52.2,48.1,30.05,WNW,293,7.2,8.5,86,0.00,,,0.00,WUHU216HW,2013-01-26 18:08:00,
2013-01-26 10:13:00,52.4,48.0,30.04,West,270,7.2,8.5,85,0.00,,,0.00,WUHU216HW,2013-01-26 18:13:00,
2013-01-26 10:18:00,52.6,47.9,30.04,WSW,248,3.4,7.2,84,0.00,,,0.00,WUHU216HW,2013-01-26 18:18:00,
2013-01-26 10:23:00,52.7,48.1,30.05,WSW,248,7.2,7.2,84,0.00,,,0.00,WUHU216HW,2013-01-26 18:23:00,
2013-01-26 10:28:00,52.9,47.9,30.04,West,270,6.0,8.5,83,0.00,,,0.00,WUHU216HW,2013-01-26 18:28:00,
2013-01-26 10:33:00,52.9,47.3,30.04,SSW,203,2.7,8.5,81,0.00,,,0.00,WUHU216HW,2013-01-26 18:33:00,
2013-01-26 10:38:00,53.3,47.6,30.04,WNW,293,6.0,8.3,81,0.00,,,0.00,WUHU216HW,2013-01-26 18:38:00,
2013-01-26 10:43:00,53.5,47.5,30.04,SW,225,3.6,6.0,80,0.00,,,0.00,WUHU216HW,2013-01-26 18:43:00,
2013-01-26 10:48:00,53.6,47.7,30.04,West,270,4.7,6.0,80,0.00,,,0.00,WUHU216HW,2013-01-26 18:48:00,
2013-01-26 10:53:00,53.6,47.7,30.04,NW,315,8.5,8.5,80,0.00,,,0.00,WUHU216HW,2013-01-26 18:53:00,
2013-01-26 10:58:00,54.0,47.4,30.04,NW,315,4.7,8.5,78,0.00,,,0.00,WUHU216HW,2013-01-26 18:58:00,
2013-01-26 11:03:00,54.0,47.4,30.04,WSW,248,7.4,7.4,78,0.00,,,0.00,WUHU216HW,2013-01-26 19:03:00,
2013-01-26 11:08:00,54.0,47.4,30.04,West,270,5.6,7.4,78,0.00,,,0.00,WUHU216HW,2013-01-26 19:08:00,
2013-01-26 11:13:00,54.4,47.6,30.04,West,270,1.8,6.9,78,0.00,,,0.00,WUHU216HW,2013-01-26 19:13:00,
2013-01-26 11:18:00,54.5,47.4,30.04,West,270,4.7,6.9,77,0.00,,,0.00,WUHU216HW,2013-01-26 19:18:00,
2013-01-26 11:23:00,54.7,47.6,30.03,WSW,248,8.7,8.7,77,0.00,,,0.00,WUHU216HW,2013-01-26 19:23:00,
2013-01-26 11:28:00,54.9,47.4,30.03,NW,315,5.4,8.7,76,0.00,,,0.00,WUHU216HW,2013-01-26 19:28:00,
2013-01-26 11:33:00,55.1,46.6,30.03,WNW,293,7.8,8.7,73,0.00,,,0.00,WUHU216HW,2013-01-26 19:33:00,
2013-01-26 11:38:00,55.1,46.6,30.03,WNW,293,6.5,10.1,73,0.00,,,0.00,WUHU216HW,2013-01-26 19:38:00,
2013-01-26 11:43:00,55.4,46.9,30.03,West,270,4.7,10.1,73,0.00,,,0.00,WUHU216HW,2013-01-26 19:43:00,
2013-01-26 11:48:00,55.4,46.6,30.03,WSW,248,10.3,10.3,72,0.00,,,0.00,WUHU216HW,2013-01-26 19:48:00,
2013-01-26 11:53:00,55.4,46.3,30.03,WSW,248,6.9,10.3,71,0.00,,,0.00,WUHU216HW,2013-01-26 19:53:00,
2013-01-26 11:58:00,55.6,46.1,30.03,WNW,293,5.6,10.3,70,0.00,,,0.00,WUHU216HW,2013-01-26 19:58:00,
2013-01-26 12:03:00,55.6,46.1,30.03,WSW,248,8.9,8.9,70,0.00,,,0.00,WUHU216HW,2013-01-26 20:03:00,
2013-01-26 12:08:00,55.8,46.3,30.02,West,270,9.2,9.2,70,0.00,,,0.00,WUHU216HW,2013-01-26 20:08:00,
2013-01-26 12:13:00,56.0,45.5,30.02,West,270,7.2,9.2,68,0.00,,,0.00,WUHU216HW,2013-01-26 20:13:00,
2013-01-26 12:18:00,56.0,45.5,30.02,West,270,6.3,7.2,68,0.00,,,0.00,WUHU216HW,2013-01-26 20:18:00,
2013-01-26 12:23:00,56.0,45.5,30.01,WSW,248,8.9,8.9,68,0.00,,,0.00,WUHU216HW,2013-01-26 20:23:00,
2013-01-26 12:28:00,56.2,45.7,30.01,WSW,248,1.8,8.9,68,0.00,,,0.00,WUHU216HW,2013-01-26 20:28:00,
2013-01-26 12:33:00,56.2,45.4,30.01,WSW,248,5.1,8.9,67,0.00,,,0.00,WUHU216HW,2013-01-26 20:33:00,
2013-01-26 12:38:00,56.3,45.9,30.01,WSW,248,7.8,7.8,68,0.00,,,0.00,WUHU216HW,2013-01-26 20:38:00,
2013-01-26 12:43:00,56.5,46.1,30.01,NW,315,4.7,7.8,68,0.00,,,0.00,WUHU216HW,2013-01-26 20:43:00,
2013-01-26 12:49:00,56.5,45.6,30.01,WNW,293,4.5,5.4,67,0.00,,,0.00,WUHU216HW,2013-01-26 20:49:00,
2013-01-26 12:54:00,56.5,45.6,30.01,SW,225,9.2,9.2,67,0.00,,,0.00,WUHU216HW,2013-01-26 20:54:00,
2013-01-26 12:59:00,56.7,46.3,30.01,West,270,4.7,9.2,68,0.00,,,0.00,WUHU216HW,2013-01-26 20:59:00,
2013-01-26 13:04:00,56.7,45.8,30.01,SW,225,6.9,7.6,67,0.00,,,0.00,WUHU216HW,2013-01-26 21:04:00,
2013-01-26 13:09:00,56.7,45.8,30.01,WNW,293,6.5,7.4,67,0.00,,,0.00,WUHU216HW,2013-01-26 21:09:00,
2013-01-26 13:14:00,56.7,46.3,30.01,West,270,4.5,6.9,68,0.00,,,0.00,WUHU216HW,2013-01-26 21:14:00,
2013-01-26 13:19:00,56.7,45.8,30.01,WNW,293,6.0,6.9,67,0.00,,,0.00,WUHU216HW,2013-01-26 21:19:00,
2013-01-26 13:24:00,56.7,45.8,30.01,West,270,3.4,6.9,67,0.00,,,0.00,WUHU216HW,2013-01-26 21:24:00,
2013-01-26 13:29:00,56.7,46.3,30.01,WNW,293,8.7,8.7,68,0.00,,,0.00,WUHU216HW,2013-01-26 21:29:00,
2013-01-26 13:34:00,56.9,46.5,30.01,West,270,4.0,8.7,68,0.00,,,0.00,WUHU216HW,2013-01-26 21:34:00,
2013-01-26 13:39:00,56.7,46.6,30.01,NNW,338,6.0,7.6,69,0.00,,,0.00,WUHU216HW,2013-01-26 21:39:00,
2013-01-26 13:44:00,56.5,46.4,30.01,SW,225,4.9,8.5,69,0.00,,,0.00,WUHU216HW,2013-01-26 21:44:00,
2013-01-26 13:49:00,56.7,47.1,30.01,WSW,248,5.4,8.5,70,0.00,,,0.00,WUHU216HW,2013-01-26 21:49:00,
2013-01-26 13:54:00,56.7,46.6,30.01,WNW,293,8.5,8.5,69,0.00,,,0.00,WUHU216HW,2013-01-26 21:54:00,
2013-01-26 13:59:00,56.7,46.6,30.01,WNW,293,6.3,8.5,69,0.00,,,0.00,WUHU216HW,2013-01-26 21:59:00,
2013-01-26 14:04:00,56.9,46.8,30.01,WNW,293,13.4,13.4,69,0.00,,,0.00,WUHU216HW,2013-01-26 22:04:00,
2013-01-26 14:09:00,56.7,46.6,30.01,SW,225,7.4,13.4,69,0.00,,,0.00,WUHU216HW,2013-01-26 22:09:00,
2013-01-26 14:14:00,56.7,46.6,30.01,WSW,248,12.5,15.7,69,0.00,,,0.00,WUHU216HW,2013-01-26 22:14:00,
2013-01-26 14:19:00,56.7,46.6,30.01,SW,225,8.9,15.7,69,0.00,,,0.00,WUHU216HW,2013-01-26 22:19:00,
2013-01-26 14:24:00,56.7,46.6,30.01,SW,225,8.7,12.5,69,0.00,,,0.00,WUHU216HW,2013-01-26 22:24:00,
2013-01-26 14:29:00,56.7,46.6,30.01,West,270,9.4,9.4,69,0.00,,,0.00,WUHU216HW,2013-01-26 22:29:00,
2013-01-26 14:34:00,56.5,46.1,30.01,West,270,11.2,11.2,68,0.00,,,0.00,WUHU216HW,2013-01-26 22:34:00,
2013-01-26 14:39:00,56.5,46.4,30.01,WSW,248,6.0,11.2,69,0.00,,,0.00,WUHU216HW,2013-01-26 22:39:00,
2013-01-26 14:44:00,56.3,45.9,30.01,West,270,9.6,11.2,68,0.00,,,0.00,WUHU216HW,2013-01-26 22:44:00,
2013-01-26 14:49:00,56.5,46.1,30.01,SW,225,8.3,11.6,68,0.00,,,0.00,WUHU216HW,2013-01-26 22:49:00,
2013-01-26 14:54:00,56.5,45.6,30.02,NW,315,7.6,11.6,67,0.00,,,0.00,WUHU216HW,2013-01-26 22:54:00,
2013-01-26 14:59:00,56.3,45.5,30.02,WSW,248,9.8,10.1,67,0.00,,,0.00,WUHU216HW,2013-01-26 22:59:00,
2013-01-26 15:04:00,56.2,44.6,30.02,West,270,9.2,10.1,65,0.00,,,0.00,WUHU216HW,2013-01-26 23:04:00,
2013-01-26 15:09:00,56.2,44.6,30.02,WSW,248,12.1,12.1,65,0.00,,,0.00,WUHU216HW,2013-01-26 23:09:00,
2013-01-26 15:14:00,56.0,44.4,30.02,WSW,248,8.9,12.1,65,0.00,,,0.00,WUHU216HW,2013-01-26 23:14:00,
2013-01-26 15:19:00,56.0,44.7,30.02,WSW,248,7.2,8.9,66,0.00,,,0.00,WUHU216HW,2013-01-26 23:19:00,
2013-01-26 15:24:00,56.0,44.7,30.02,NW,315,3.4,8.9,66,0.00,,,0.00,WUHU216HW,2013-01-26 23:24:00,
2013-01-26 15:29:00,55.8,44.2,30.02,WNW,293,5.8,7.2,65,0.00,,,0.00,WUHU216HW,2013-01-26 23:29:00,
2013-01-26 15:34:00,55.8,44.6,30.02,WSW,248,4.5,7.6,66,0.00,,,0.00,WUHU216HW,2013-01-26 23:34:00,
2013-01-26 15:39:00,55.8,44.6,30.02,SW,225,9.8,9.8,66,0.00,,,0.00,WUHU216HW,2013-01-26 23:39:00,
2013-01-26 15:44:00,55.8,44.6,30.02,SW,225,6.7,9.8,66,0.00,,,0.00,WUHU216HW,2013-01-26 23:44:00,
2013-01-26 15:49:00,55.6,44.8,30.02,NW,315,12.3,12.3,67,0.00,,,0.00,WUHU216HW,2013-01-26 23:49:00,
2013-01-26 15:54:00,55.4,44.3,30.02,NW,315,7.6,12.3,66,0.00,,,0.00,WUHU216HW,2013-01-26 23:54:00,
2013-01-26 15:59:00,55.1,43.9,30.02,SW,225,9.8,12.3,66,0.00,,,0.00,WUHU216HW,2013-01-26 23:59:00,
2013-01-26 16:04:00,54.9,43.8,30.02,NW,315,4.9,10.3,66,0.00,,,0.00,WUHU216HW,2013-01-27 00:04:00,
2013-01-26 16:09:00,54.9,43.8,30.02,SW,225,4.9,10.3,66,0.00,,,0.00,WUHU216HW,2013-01-27 00:09:00,
2013-01-26 16:14:00,54.9,43.3,30.02,WSW,248,6.9,6.9,65,0.00,,,0.00,WUHU216HW,2013-01-27 00:14:00,
2013-01-26 16:19:00,54.7,43.6,30.02,WNW,293,5.8,6.9,66,0.00,,,0.00,WUHU216HW,2013-01-27 00:19:00,
2013-01-26 16:24:00,54.9,44.1,30.02,WSW,248,5.4,6.9,67,0.00,,,0.00,WUHU216HW,2013-01-27 00:24:00,
2013-01-26 16:29:00,54.9,44.1,30.01,WSW,248,5.8,5.8,67,0.00,,,0.00,WUHU216HW,2013-01-27 00:29:00,
2013-01-26 16:34:00,54.9,44.1,30.02,WNW,293,6.0,6.0,67,0.00,,,0.00,WUHU216HW,2013-01-27 00:34:00,
2013-01-26 16:39:00,54.9,44.1,30.01,WSW,248,6.3,6.3,67,0.00,,,0.00,WUHU216HW,2013-01-27 00:39:00,
2013-01-26 16:44:00,54.7,43.9,30.02,WNW,293,7.8,7.8,67,0.00,,,0.00,WUHU216HW,2013-01-27 00:44:00,
2013-01-26 16:49:00,54.5,44.2,30.02,NW,315,3.4,7.8,68,0.00,,,0.00,WUHU216HW,2013-01-27 00:49:00,
2013-01-26 16:54:00,54.4,44.0,30.02,NW,315,3.8,7.8,68,0.00,,,0.00,WUHU216HW,2013-01-27 00:54:00,
2013-01-26 16:59:00,54.2,44.3,30.02,WNW,293,6.5,6.5,69,0.00,,,0.00,WUHU216HW,2013-01-27 00:59:00,
2013-01-26 17:04:00,54.0,44.1,30.02,SW,225,6.5,6.5,69,0.00,,,0.00,WUHU216HW,2013-01-27 01:04:00,
2013-01-26 17:09:00,54.0,44.5,30.02,West,270,2.5,6.5,70,0.00,,,0.00,WUHU216HW,2013-01-27 01:09:00,
2013-01-26 17:14:00,54.0,44.5,30.03,NW,315,2.5,4.0,70,0.00,,,0.00,WUHU216HW,2013-01-27 01:14:00,
2013-01-26 17:19:00,53.8,44.7,30.03,SE,135,4.5,4.5,71,0.00,,,0.00,WUHU216HW,2013-01-27 01:19:00,
2013-01-26 17:24:00,53.6,44.5,30.03,SW,225,6.0,6.0,71,0.00,,,0.00,WUHU216HW,2013-01-27 01:24:00,
2013-01-26 17:29:00,53.6,44.5,30.03,SW,225,5.1,6.0,71,0.00,,,0.00,WUHU216HW,2013-01-27 01:29:00,
2013-01-26 17:34:00,53.5,44.6,30.03,West,270,3.8,6.0,72,0.00,,,0.00,WUHU216HW,2013-01-27 01:34:00,
2013-01-26 17:39:00,53.3,44.5,30.03,WSW,248,4.0,5.1,72,0.00,,,0.00,WUHU216HW,2013-01-27 01:39:00,
2013-01-26 17:44:00,53.3,44.5,30.03,WSW,248,3.4,4.0,72,0.00,,,0.00,WUHU216HW,2013-01-27 01:44:00,
2013-01-26 17:49:00,53.1,44.3,30.03,WSW,248,6.5,6.5,72,0.00,,,0.00,WUHU216HW,2013-01-27 01:49:00,
2013-01-26 17:54:00,52.9,44.2,30.04,SW,225,3.4,6.5,72,0.00,,,0.00,WUHU216HW,2013-01-27 01:54:00,
2013-01-26 17:59:00,52.9,44.2,30.04,West,270,5.4,6.5,72,0.00,,,0.00,WUHU216HW,2013-01-27 01:59:00,
2013-01-26 18:04:00,52.9,44.2,30.04,West,270,1.6,5.4,72,0.00,,,0.00,WUHU216HW,2013-01-27 02:04:00,
2013-01-26 18:09:00,52.7,44.0,30.04,WSW,248,3.4,3.4,72,0.00,,,0.00,WUHU216HW,2013-01-27 02:09:00,
2013-01-26 18:14:00,52.6,43.8,30.04,SW,225,4.7,4.7,72,0.00,,,0.00,WUHU216HW,2013-01-27 02:14:00,
2013-01-26 18:19:00,52.6,43.8,30.04,NNW,338,1.1,4.7,72,0.00,,,0.00,WUHU216HW,2013-01-27 02:19:00,
2013-01-26 18:24:00,52.4,43.7,30.04,WSW,248,1.1,4.7,72,0.00,,,0.00,WUHU216HW,2013-01-27 02:24:00,
2013-01-26 18:29:00,52.4,43.7,30.04,WSW,248,2.5,4.0,72,0.00,,,0.00,WUHU216HW,2013-01-27 02:29:00,
2013-01-26 18:34:00,52.4,43.7,30.05,West,270,1.8,2.5,72,0.00,,,0.00,WUHU216HW,2013-01-27 02:34:00,
2013-01-26 18:39:00,52.2,43.5,30.05,West,270,3.8,3.8,72,0.00,,,0.00,WUHU216HW,2013-01-27 02:39:00,
2013-01-26 18:44:00,52.2,43.5,30.05,SW,225,4.0,4.0,72,0.00,,,0.00,WUHU216HW,2013-01-27 02:44:00,
2013-01-26 18:49:00,52.2,43.5,30.05,WSW,248,4.5,4.5,72,0.00,,,0.00,WUHU216HW,2013-01-27 02:49:00,
2013-01-26 18:54:00,52.2,43.5,30.05,WSW,248,2.7,4.7,72,0.00,,,0.00,WUHU216HW,2013-01-27 02:54:00,
2013-01-26 18:59:00,52.2,43.5,30.05,WSW,248,3.4,4.7,72,0.00,,,0.00,WUHU216HW,2013-01-27 02:59:00,
2013-01-26 19:04:00,52.2,43.5,30.05,South,180,3.4,3.4,72,0.00,,,0.00,WUHU216HW,2013-01-27 03:04:00,
2013-01-26 19:09:00,52.2,43.5,30.05,SW,225,3.4,3.4,72,0.00,,,0.00,WUHU216HW,2013-01-27 03:09:00,
2013-01-26 19:14:00,52.2,43.5,30.06,WSW,248,2.5,3.4,72,0.00,,,0.00,WUHU216HW,2013-01-27 03:14:00,
2013-01-26 19:19:00,52.2,43.5,30.06,WSW,248,2.9,3.4,72,0.00,,,0.00,WUHU216HW,2013-01-27 03:19:00,
2013-01-26 19:24:00,52.0,43.7,30.05,WSW,248,2.7,2.9,73,0.00,,,0.00,WUHU216HW,2013-01-27 03:24:00,
2013-01-26 19:29:00,51.8,43.5,30.06,WSW,248,3.8,6.3,73,0.00,,,0.00,WUHU216HW,2013-01-27 03:29:00,
2013-01-26 19:34:00,51.8,43.5,30.06,WSW,248,2.0,6.3,73,0.00,,,0.00,WUHU216HW,2013-01-27 03:34:00,
2013-01-26 19:39:00,51.7,43.3,30.06,SW,225,6.5,6.5,73,0.00,,,0.00,WUHU216HW,2013-01-27 03:39:00,
2013-01-26 19:44:00,51.7,43.3,30.06,WSW,248,4.3,6.5,73,0.00,,,0.00,WUHU216HW,2013-01-27 03:44:00,
2013-01-26 19:49:00,51.5,43.1,30.06,WSW,248,1.6,6.5,73,0.00,,,0.00,WUHU216HW,2013-01-27 03:49:00,
2013-01-26 19:54:00,51.5,43.1,30.06,WSW,248,2.7,2.7,73,0.00,,,0.00,WUHU216HW,2013-01-27 03:54:00,
2013-01-26 19:59:00,51.5,43.1,30.06,WNW,293,2.7,2.7,73,0.00,,,0.00,WUHU216HW,2013-01-27 03:59:00,
2013-01-26 20:04:00,51.5,43.1,30.06,West,270,4.7,4.7,73,0.00,,,0.00,WUHU216HW,2013-01-27 04:04:00,
2013-01-26 20:09:00,51.3,42.9,30.06,SW,225,3.8,4.7,73,0.00,,,0.00,WUHU216HW,2013-01-27 04:09:00,
2013-01-26 20:14:00,51.3,43.3,30.06,WSW,248,1.6,4.7,74,0.00,,,0.00,WUHU216HW,2013-01-27 04:14:00,
2013-01-26 20:19:00,51.3,43.3,30.06,SW,225,1.6,3.8,74,0.00,,,0.00,WUHU216HW,2013-01-27 04:19:00,
2013-01-26 20:24:00,51.3,43.3,30.06,SW,225,3.4,3.4,74,0.00,,,0.00,WUHU216HW,2013-01-27 04:24:00,
2013-01-26 20:29:00,51.3,43.3,30.06,West,270,2.5,3.4,74,0.00,,,0.00,WUHU216HW,2013-01-27 04:29:00,
2013-01-26 20:34:00,51.1,43.5,30.06,SSW,203,4.7,4.7,75,0.00,,,0.00,WUHU216HW,2013-01-27 04:34:00,
2013-01-26 20:39:00,51.1,43.5,30.06,West,270,2.5,4.7,75,0.00,,,0.00,WUHU216HW,2013-01-27 04:39:00,
2013-01-26 20:44:00,51.1,43.5,30.06,NW,315,2.2,4.7,75,0.00,,,0.00,WUHU216HW,2013-01-27 04:44:00,
2013-01-26 20:49:00,51.1,43.5,30.06,West,270,2.5,3.8,75,0.00,,,0.00,WUHU216HW,2013-01-27 04:49:00,
2013-01-26 20:54:00,51.1,43.5,30.06,WNW,293,9.2,9.2,75,0.00,,,0.00,WUHU216HW,2013-01-27 04:54:00,
2013-01-26 20:59:00,51.1,43.5,30.06,West,270,4.0,9.2,75,0.00,,,0.00,WUHU216HW,2013-01-27 04:59:00,
2013-01-26 21:04:00,50.9,43.3,30.06,WSW,248,3.4,5.4,75,0.00,,,0.00,WUHU216HW,2013-01-27 05:04:00,
2013-01-26 21:09:00,50.9,43.3,30.07,WSW,248,2.0,4.9,75,0.00,,,0.00,WUHU216HW,2013-01-27 05:09:00,
2013-01-26 21:14:00,50.9,43.3,30.07,WNW,293,6.5,6.5,75,0.00,,,0.00,WUHU216HW,2013-01-27 05:14:00,
2013-01-26 21:19:00,50.9,43.3,30.07,SW,225,1.1,6.5,75,0.00,,,0.00,WUHU216HW,2013-01-27 05:19:00,
2013-01-26 21:24:00,50.9,43.7,30.06,SW,225,1.1,3.1,76,0.00,,,0.00,WUHU216HW,2013-01-27 05:24:00,
2013-01-26 21:29:00,50.9,43.7,30.06,SSW,203,3.4,3.4,76,0.00,,,0.00,WUHU216HW,2013-01-27 05:29:00,
2013-01-26 21:34:00,50.9,43.7,30.07,SW,225,3.4,3.4,76,0.00,,,0.00,WUHU216HW,2013-01-27 05:34:00,
2013-01-26 21:39:00,50.8,43.5,30.07,WNW,293,3.6,3.6,76,0.00,,,0.00,WUHU216HW,2013-01-27 05:39:00,
2013-01-26 21:45:00,50.8,43.5,30.07,WNW,293,1.6,3.6,76,0.00,,,0.00,WUHU216HW,2013-01-27 05:45:00,
2013-01-26 21:50:00,50.8,43.5,30.07,West,270,4.9,4.9,76,0.00,,,0.00,WUHU216HW,2013-01-27 05:50:00,
2013-01-26 21:55:00,50.6,43.3,30.07,NNW,338,0.4,4.9,76,0.00,,,0.00,WUHU216HW,2013-01-27 05:55:00,
2013-01-26 22:00:00,50.4,43.1,30.07,ESE,113,1.6,2.0,76,0.00,,,0.00,WUHU216HW,2013-01-27 06:00:00,
2013-01-26 22:05:00,50.4,43.1,30.07,West,270,1.6,1.8,76,0.00,,,0.00,WUHU216HW,2013-01-27 06:05:00,
2013-01-26 22:10:00,50.4,43.1,30.07,ESE,113,1.1,1.8,76,0.00,,,0.00,WUHU216HW,2013-01-27 06:10:00,
2013-01-26 22:15:00,50.4,43.1,30.07,ENE,68,0.0,1.6,76,0.00,,,0.00,WUHU216HW,2013-01-27 06:15:00,
2013-01-26 22:20:00,50.4,43.1,30.07,ENE,68,0.0,0.9,76,0.00,,,0.00,WUHU216HW,2013-01-27 06:20:00,
2013-01-26 22:25:00,50.4,43.1,30.07,NW,315,2.0,2.0,76,0.00,,,0.00,WUHU216HW,2013-01-27 06:25:00,
2013-01-26 22:30:00,50.0,42.4,30.07,West,270,1.1,2.0,75,0.00,,,0.00,WUHU216HW,2013-01-27 06:30:00,
2013-01-26 22:35:00,50.0,42.8,30.07,NW,315,1.6,4.3,76,0.00,,,0.00,WUHU216HW,2013-01-27 06:35:00,
2013-01-26 22:40:00,50.0,42.8,30.07,West,270,2.9,4.3,76,0.00,,,0.00,WUHU216HW,2013-01-27 06:40:00,
2013-01-26 22:45:00,49.9,42.6,30.07,West,270,2.7,2.9,76,0.00,,,0.00,WUHU216HW,2013-01-27 06:45:00,
2013-01-26 22:50:00,49.7,42.4,30.07,West,270,1.6,2.9,76,0.00,,,0.00,WUHU216HW,2013-01-27 06:50:00,
2013-01-26 22:55:00,49.7,42.4,30.07,WSW,248,0.4,2.5,76,0.00,,,0.00,WUHU216HW,2013-01-27 06:55:00,
2013-01-26 23:00:00,49.7,42.4,30.07,WSW,248,0.0,2.0,76,0.00,,,0.00,WUHU216HW,2013-01-27 07:00:00,
2013-01-26 23:05:00,49.7,42.4,30.08,WSW,248,0.0,0.4,76,0.00,,,0.00,WUHU216HW,2013-01-27 07:05:00,
2013-01-26 23:13:00,49.5,42.2,30.07,WSW,248,0.0,0.0,76,0.00,,,0.00,WUHU216HW,2013-01-27 07:13:00,
2013-01-26 23:22:00,49.3,42.0,30.08,East,90,0.0,0.7,76,0.00,,,0.00,WUHU216HW,2013-01-27 07:22:00,
2013-01-26 23:27:00,49.3,42.0,30.07,ENE,68,1.3,1.3,76,0.00,,,0.00,WUHU216HW,2013-01-27 07:27:00,
2013-01-26 23:32:00,49.1,41.9,30.07,ENE,68,0.7,1.3,76,0.00,,,0.00,WUHU216HW,2013-01-27 07:32:00,
2013-01-26 23:37:00,49.1,41.9,30.07,ESE,113,0.0,1.3,76,0.00,,,0.00,WUHU216HW,2013-01-27 07:37:00,
2013-01-26 23:42:00,49.0,42.0,30.07,SSE,158,0.2,1.6,77,0.00,,,0.00,WUHU216HW,2013-01-27 07:42:00,
2013-01-26 23:47:00,49.0,42.0,30.07,SSW,203,0.0,1.6,77,0.00,,,0.00,WUHU216HW,2013-01-27 07:47:00,
2013-01-26 23:52:00,48.8,41.9,30.07,SSW,203,1.1,1.1,77,0.00,,,0.00,WUHU216HW,2013-01-27 07:52:00,
2013-01-26 23:57:00,48.8,41.9,30.07,SSE,158,1.1,1.1,77,0.00,,,0.00,WUHU216HW,2013-01-27 07:57:00,